�ϑ��N����,2021/9/27,,,
�ϑ���,��[ �Ɉ�,,,
�ϑ��n�_,P15,,,
���x�v�ԍ�,A031,,,
,,,,
����,�C��,����,����,���l
9:30:00,-999,-999,-999,
9:31:00,-999,-999,-999,
9:32:00,-999,-999,-999,
9:33:00,-999,-999,-999,
9:34:00,-999,-999,-999,
9:35:00,-999,-999,-999,
9:36:00,-999,-999,-999,
9:37:00,-999,-999,-999,
9:38:00,-999,-999,-999,
9:39:00,-999,-999,-999,
9:40:00,-999,-999,-999,
9:41:00,-999,-999,-999,
9:42:00,-999,-999,-999,
9:43:00,-999,-999,-999,
9:44:00,-999,-999,-999,
9:45:00,-999,-999,-999,
9:46:00,-999,-999,-999,
9:47:00,-999,-999,-999,
9:48:00,-999,-999,-999,
9:49:00,-999,-999,-999,
9:50:00,26.9,3,1,
9:51:00,26.9,3,1,
9:52:00,26.8,3,1,
9:53:00,26.9,3,0.5,
9:54:00,26.9,6,1,
9:55:00,26.8,6,0.5,
9:56:00,27,6,0.5,
9:57:00,27,5,1,
9:58:00,26.9,6,0.5,
9:59:00,26.8,5,1,
10:00:00,26.8,5,0.5,
10:01:00,27,5,0.5,
10:02:00,26.8,5,0.5,
10:03:00,26.3,6,0.5,
10:04:00,26.5,6,1,
10:05:00,26.5,6,1,
10:06:00,26.2,6,0.5,
10:07:00,26.7,3,1,
10:08:00,26.2,3,0.5,
10:09:00,26.2,1,0.5,
10:10:00,26,7,0.5,
10:11:00,26,1,1,
10:12:00,26,3,0.5,
10:13:00,25.8,0,0,
10:14:00,26.1,3,1,
10:15:00,26.8,4,0.5,
10:16:00,26.9,5,0.5,
10:17:00,26.9,6,0.5,
10:18:00,27,3,0.5,
10:19:00,27.1,5,0.5,
10:20:00,27,3,0.5,
10:21:00,27,7,0.5,
10:22:00,26.8,7,0.5,
10:23:00,27,5,1,
10:24:00,27.1,0,0,
10:25:00,27.1,3,0.5,
10:26:00,27.1,0,0,
10:27:00,27.1,1,0.5,
10:28:00,26.9,3,0.5,
10:29:00,26.8,4,1,
10:30:00,26.9,5,1,
10:31:00,27,5,1,
10:32:00,27,7,1,
10:33:00,27,7,0.5,���x�㏸�̑傫�����傫������
10:34:00,28,5,0.5,
10:35:00,27.8,7,1,
10:36:00,28,5,1,
10:37:00,27.5,5,0.5,
10:38:00,27.6,0,0,
10:39:00,27.5,0,0,
10:40:00,27.7,3,1,
10:41:00,27.7,3,0.5,
10:42:00,27.2,4,1,
10:43:00,27.7,4,0.5,
10:44:00,27.8,4,0.5,
10:45:00,27.1,7,1.5,
10:46:00,27.2,6,1,
10:47:00,27.8,7,1.5,
10:48:00,27.2,3,0.5,
10:49:00,28,7,0.5,
10:50:00,27.8,7,0.5,
10:51:00,28.3,7,1,
10:52:00,28.1,7,1,
10:53:00,28,7,0.5,
10:54:00,28.1,7,1.5,
10:55:00,28,7,1,
10:56:00,27.8,7,0.5,
10:57:00,27,8,0.5,
10:58:00,27.2,0,0,
10:59:00,28.2,0,0,
11:00:00,29,7,0.5,
11:01:00,29.5,0,0,
11:02:00,29.6,3,1,
11:03:00,29.1,7,1.5,
11:04:00,28.8,5,1.5,
11:05:00,29,5,0.5,
11:06:00,29.1,0,0,
11:07:00,29.5,0,0,
11:08:00,29.8,3,0.5,
11:09:00,29.9,3,1,
11:10:00,30,7,1.5,
11:11:00,29.2,7,1,
11:12:00,28.8,7,1,
11:13:00,29,5,1.5,
11:14:00,29.1,5,1,
11:15:00,29.8,0,0,
11:16:00,29.4,4,1,
11:17:00,29.5,3,0.5,
11:18:00,29.3,4,1,
11:19:00,29.1,5,1,
11:20:00,29,3,1.5,���������Ȃ��� 
11:21:00,29,6,1.5,
11:22:00,29,7,2,
11:23:00,28.2,7,2,
11:24:00,29,7,1,
11:25:00,27.8,5,1,
11:26:00,28.2,0,0,
11:27:00,28,7,1,
11:28:00,27.8,5,1.5,
11:29:00,28,0,0,
11:30:00,29,0,0,
